[[{"header":{"parameterUnit":"m.s-1","parameterCategory":1,"la1":30.2991,"la2":30.254,"lo1":-89.0895,"lo2":-89.0444,"dy":0.0017,"dx":0.0017,"nx":28,"ny":28,"refTime":"2024-10-15T09:00:00:Z","depth":0,"parameterNumber":2,"parameterNumberName":"U-component_of_WINDS"},"data":[0,0,0,0,0,0,0,0,0,0,0,0,0,0,0,0,0,0,0,0,0,0,0,0,0,0,0,0,0,0,0,0,0,0,0,0,0,0,0,0,0,0,0,0,0,0,0,0,0,0,0,0,0,0,0,0,0,0,-2.9761,-2.9762,0,-2.9808,-2.9809,-2.9809,-2.9718,-2.9715,-2.9712,-2.9709,-2.9756,-2.976,-2.9764,0,0,0,0,0,0,0,0,0,0,0,0,0,-2.9591,-2.9594,-2.9761,-2.9762,-2.9763,-2.9808,-2.9809,-2.9809,-2.9718,-2.9714,-2.9711,-2.9707,-2.9755,-2.976,-2.9764,0,0,0,0,0,0,0,0,0,0,0,0,0,-2.9654,-2.9596,-2.9761,-2.9723,-2.972,-2.9808,-2.9809,-2.981,-2.9719,-2.9714,-2.971,-2.9706,-2.9753,-2.9759,-2.9765,-2.9893,0,0,-2.9784,-2.9786,0,0,0,0,0,0,0,0,-2.9651,-2.966,-2.9728,-2.9725,-2.9722,-2.9752,-2.9766,-2.9838,-2.972,-2.9719,-2.9709,-2.9703,-2.9759,-2.9764,-2.9783,-2.9896,-2.9898,-2.9784,-2.9788,-2.9791,-2.9792,0,0,0,0,0,0,0,-2.9646,-2.9658,-2.978,-2.9729,-2.9725,-2.9702,-2.9706,-2.9779,-2.9764,-2.9719,-2.9712,-2.9719,-2.9756,-2.9777,-2.9783,-2.9898,-2.9784,-2.979,-2.9793,-2.9796,-3.0117,-3.0122,0,0,0,0,0,0,-2.9647,-2.9655,-2.9778,-2.9781,-2.9675,-2.9709,-2.9713,-2.9747,-2.9763,-2.9761,-2.9723,-2.9715,-2.9769,-2.9776,-2.9784,-2.9935,-2.9791,-2.9796,-2.98,-3.0112,-3.0118,-3.0123,0,0,0,0,0,0,-2.9644,-2.9659,-2.9776,-2.9716,-2.9729,-2.9717,-2.9756,-2.9751,-2.9771,-2.9766,-2.9762,-2.9747,-2.9765,-2.9776,-2.9867,-2.9935,-2.9799,-2.9805,-3.0106,-3.0114,-3.0121,-3.0237,0,0,0,0,0,0,-2.9639,-2.9658,-2.9708,-2.9718,-2.9733,-2.9859,-2.976,-2.9755,-2.9782,-2.9772,-2.9788,-2.9786,-2.9763,-2.9858,-2.9873,-2.9941,-2.9809,-3.01,-3.011,-3.0118,-3.0227,-3.0247,-3.0265,0,0,0,0,0,-2.9633,-2.9739,-2.9711,-2.9726,-2.9795,-2.9863,-2.9872,-2.9843,-2.9788,-2.9837,-2.9833,-2.9785,-2.9925,-2.9868,-2.9884,-2.9955,-3.0096,-3.0107,-3.0118,-3.0219,-3.0243,-3.0264,0,0,0,0,0,0,-2.9737,-2.9739,-2.9708,-2.982,-2.9842,-2.9848,-2.9909,-2.9871,-2.9909,-2.9897,-2.986,-2.9864,-2.9962,-2.9967,-2.9904,-3.0079,-3.0001,-3.0016,-3.0072,-3.0096,-3.0114,-3.0111,-2.9814,0,0,0,0,0,-2.9772,-2.9828,-2.9827,-2.9926,-2.9939,-2.9922,-2.9951,-2.9927,-2.9948,-2.9957,-2.996,-2.9982,-3.003,-3.0063,-3.0108,-3.0227,-3.0228,-3.0283,-3.0302,-3.0318,-3.0331,-3.0393,-3.0418,-3.0159,-3.0159,-3.0159,0,0,-2.9847,-2.9855,-2.9893,-2.9947,-2.9961,-3.002,-2.9931,-2.9996,-3.0039,-2.9967,-3.0053,-3.0055,-3.0077,-3.0183,-3.0229,-3.019,-3.0403,-3.0332,-3.0344,-3.0349,-3.0407,-3.0432,-3.0453,-3.0167,-3.0165,-3.0164,0,0,-3.0012,-3.0025,-3.0108,-3.0124,-3.0146,-3.0134,-3.0154,-3.0165,-3.0164,-3.025,-3.0196,-3.0246,-3.0331,-3.0348,-3.0368,-3.0539,-3.0496,-3.0554,-3.0653,-3.0714,-3.0735,-3.0753,-3.0813,-3.0835,-3.0567,-3.0568,-3.0568,0,-3.0102,-3.0188,-3.0155,-3.0225,-3.0249,-3.0186,-3.027,-3.0286,-3.0323,-3.0341,-3.0296,-3.04,-3.0411,-3.0519,-3.056,-3.0579,-3.06,-3.0553,-3.0734,-3.0752,-3.0768,-3.0825,-3.0848,-3.0574,-3.0574,-3.0573,-3.0572,0,-3.0297,-3.0358,-3.0422,-3.0458,-3.049,-3.0566,-3.0544,-3.058,-3.0553,-3.0545,-3.0632,-3.0642,-3.0687,-3.0711,-3.0685,-3.0815,-3.079,-3.0741,-3.0662,-3.08,-3.0853,-3.0875,-3.0584,-3.0582,-3.058,-3.0578,0,0,-3.053,-3.0546,-3.057,-3.0585,-3.0605,-3.0651,-3.0723,-3.0767,-3.0798,-3.0825,-3.0884,-3.0956,-3.0911,-3.0933,-3.0909,-3.0962,-3.1096,-3.0906,-3.0906,-3.0941,-3.1238,-3.1275,-3.1301,-3.1067,-3.1071,-3.1074,-3.1236,0,-3.0694,-3.0819,-3.0791,-3.0914,-3.0969,-3.0909,-3.0972,-3.099,-3.0984,-3.1029,-3.1022,-3.1074,-3.101,-3.1023,-3.1074,-3.1069,-3.1155,-3.1057,-3.1121,-3.1124,-3.1118,-3.1329,-3.1369,-3.1521,-3.1257,-3.126,-3.1263,0,-3.0902,-3.0937,-3.1065,-3.1075,-3.1096,-3.1154,-3.1191,-3.1235,-3.1254,-3.1245,-3.127,-3.1235,-3.1305,-3.1225,-3.1321,-3.1255,-3.1279,-3.1281,-3.1286,-3.1291,-3.1202,-3.134,-3.1569,-3.1593,-3.1295,-3.1293,-3.129,0,-3.1059,-3.1137,-3.1224,-3.1239,-3.1252,-3.1293,-3.1301,-3.1315,-3.1343,-3.1375,-3.1392,-3.1432,-3.1454,-3.1486,-3.1461,-3.1405,-3.1561,-3.1479,-3.1556,-3.1557,-3.1592,-3.159,-3.1829,-3.1608,-3.1607,-3.1607,-3.1607,0,-3.1245,-3.1326,-3.1294,-3.1348,-3.1436,-3.1402,-3.149,-3.149,-3.1504,-3.1555,-3.1505,-3.1555,-3.152,-3.1566,-3.1547,-3.1629,-3.1639,-3.1634,-3.1628,-3.1639,-3.164,-3.1655,-3.1643,-3.1613,-3.1612,-3.1611,-3.161,0,-3.1436,-3.1418,-3.1508,-3.1513,-3.1516,-3.1581,-3.1584,-3.1633,-3.1623,-3.1689,-3.1702,-3.1687,-3.1739,-3.1717,-3.1772,-3.1759,-3.1864,-3.1844,-3.1858,-3.1853,-3.193,-3.1923,-3.2187,-3.222,-3.1978,-3.1981,-3.1983,0,-3.1556,-3.1616,-3.1627,-3.1658,-3.1669,-3.172,-3.1748,-3.1716,-3.1747,-3.1772,-3.1818,-3.1865,-3.1901,-3.1986,-3.1979,-3.2021,-3.2001,-3.2091,-3.2007,-3.2015,-3.2002,-3.1999,-3.2004,-3.2108,-3.211,-3.2113,-3.2115,0,-3.177,-3.1758,-3.18,-3.184,-3.1874,-3.1903,-3.1928,-3.1956,-3.1925,-3.1962,-3.2014,-3.2042,-3.2097,-3.2145,-3.2181,-3.2187,-3.2146,-3.2141,-3.2161,-3.2172,-3.2177,-3.2175,-3.1903,-3.2135,-3.2133,-3.2131,-3.213,-3.213,-3.1929,-3.198,-3.1995,-3.2043,-3.2059,-3.2083,-3.2129,-3.2124,-3.2167,-3.221,-3.2188,-3.2248,-3.2264,-3.2308,-3.232,-3.2366,-3.2331,-3.236,-3.2367,-3.2374,-3.2384,-3.217,-3.2372,-3.2372,-3.2371,-3.2371,-3.237,0,-3.2141,-3.2147,-3.2192,-3.2228,-3.2266,-3.2223,-3.2248,-3.2282,-3.2336,-3.2354,-3.2391,-3.245,-3.2495,-3.2491,-3.2532,-3.257,-3.2552,-3.2582,-3.2579,-3.2581,-3.2414,-3.2392,-3.2596,-3.2595,-3.2595,-3.2595,-3.2595,-3.2595,-3.2256,-3.2339,-3.2328,-3.2418,-3.2424,-3.2483,-3.25,-3.2522,-3.2536,-3.2604,-3.2641,-3.2639,-3.2648,-3.2689,-3.2728,-3.2725,-3.2743,-3.278,-3.277,-3.2615,-3.2592,-3.2571,-3.2551,-3.2784,-3.2784,-3.2933,-3.2934,-3.2935]},{"header":{"parameterUnit":"m.s-1","parameterCategory":1,"la1":30.2991,"la2":30.254,"lo1":-89.0895,"lo2":-89.0444,"dy":0.0017,"dx":0.0017,"nx":28,"ny":28,"refTime":"2024-10-15T09:00:00:Z","depth":0,"parameterNumber":3,"parameterNumberName":"V-component_of_WINDS"},"data":[0,0,0,0,0,0,0,0,0,0,0,0,0,0,0,0,0,0,0,0,0,0,0,0,0,0,0,0,0,0,0,0,0,0,0,0,0,0,0,0,0,0,0,0,0,0,0,0,0,0,0,0,0,0,0,0,0,0,-6.8235,-6.8236,0,-6.8315,-6.8316,-6.8317,-6.8212,-6.8208,-6.8204,-6.82,-6.8276,-6.8282,-6.8287,0,0,0,0,0,0,0,0,0,0,0,0,0,-6.7984,-6.7989,-6.8235,-6.8236,-6.8237,-6.8315,-6.8316,-6.8317,-6.8212,-6.8208,-6.8203,-6.8199,-6.8274,-6.8281,-6.8288,0,0,0,0,0,0,0,0,0,0,0,0,0,-6.8082,-6.7991,-6.8235,-6.8194,-6.8191,-6.8315,-6.8316,-6.8317,-6.8213,-6.8208,-6.8202,-6.8197,-6.8272,-6.828,-6.8288,-6.8453,0,0,-6.8314,-6.8317,0,0,0,0,0,0,0,0,-6.8076,-6.8091,-6.8199,-6.8197,-6.8194,-6.8248,-6.8255,-6.8363,-6.8215,-6.8205,-6.82,-6.8194,-6.8271,-6.8279,-6.8306,-6.8457,-6.846,-6.8315,-6.832,-6.8323,-6.8326,0,0,0,0,0,0,0,-6.807,-6.8087,-6.8266,-6.8201,-6.8198,-6.817,-6.8177,-6.8275,-6.8268,-6.8205,-6.8198,-6.8209,-6.8268,-6.8298,-6.8307,-6.8461,-6.8314,-6.8322,-6.8327,-6.833,-6.8749,-6.8754,0,0,0,0,0,0,-6.8069,-6.8082,-6.8264,-6.8269,-6.812,-6.8179,-6.8187,-6.8236,-6.8267,-6.8267,-6.8214,-6.8204,-6.8287,-6.8298,-6.8309,-6.8503,-6.8323,-6.8331,-6.8336,-6.8743,-6.875,-6.8757,0,0,0,0,0,0,-6.8064,-6.8086,-6.8261,-6.8173,-6.8194,-6.8189,-6.8245,-6.8241,-6.8271,-6.8274,-6.8271,-6.8246,-6.8283,-6.8298,-6.8418,-6.8504,-6.8335,-6.8342,-6.8735,-6.8745,-6.8753,-6.8893,0,0,0,0,0,0,-6.8057,-6.8085,-6.8149,-6.8176,-6.8199,-6.8371,-6.825,-6.8246,-6.8286,-6.8274,-6.8304,-6.8303,-6.828,-6.8406,-6.8427,-6.8512,-6.8349,-6.8728,-6.874,-6.875,-6.888,-6.8905,-6.8927,0,0,0,0,0,-6.8048,-6.8184,-6.8153,-6.8176,-6.828,-6.8376,-6.8389,-6.8361,-6.8294,-6.8357,-6.8358,-6.8302,-6.8492,-6.842,-6.8441,-6.8531,-6.8722,-6.8736,-6.8749,-6.887,-6.89,-6.8926,0,0,0,0,0,0,-6.8166,-6.8187,-6.8153,-6.8302,-6.8338,-6.8358,-6.8437,-6.8395,-6.8449,-6.8435,-6.8397,-6.8404,-6.8533,-6.8544,-6.8463,-6.8691,-6.8595,-6.8614,-6.8679,-6.8708,-6.8731,-6.8725,-6.8356,0,0,0,0,0,-6.821,-6.8289,-6.8302,-6.8432,-6.8452,-6.8442,-6.8483,-6.8459,-6.8494,-6.8508,-6.8518,-6.8553,-6.862,-6.8665,-6.8727,-6.8882,-6.8885,-6.8954,-6.8977,-6.8996,-6.9012,-6.9093,-6.9123,-6.8802,-6.8802,-6.8801,0,0,-6.83,-6.8321,-6.8373,-6.8456,-6.8481,-6.8561,-6.8456,-6.8545,-6.8603,-6.8521,-6.8635,-6.8644,-6.868,-6.8818,-6.8879,-6.8831,-6.9102,-6.9014,-6.9029,-6.9035,-6.911,-6.914,-6.9167,-6.8811,-6.881,-6.8808,0,0,-6.8505,-6.853,-6.8641,-6.8669,-6.8709,-6.8701,-6.8728,-6.8754,-6.8758,-6.8872,-6.8812,-6.8879,-6.8996,-6.9024,-6.9053,-6.9268,-6.9217,-6.9289,-6.941,-6.9489,-6.9514,-6.9536,-6.9611,-6.9639,-6.9305,-6.9306,-6.9306,0,-6.8611,-6.8732,-6.8702,-6.8796,-6.8833,-6.8765,-6.8874,-6.8902,-6.896,-6.8986,-6.8932,-6.9076,-6.9096,-6.9238,-6.9291,-6.9317,-6.9344,-6.9285,-6.9514,-6.9535,-6.9556,-6.9626,-6.9655,-6.9314,-6.9313,-6.9312,-6.9311,0,-6.886,-6.8944,-6.9028,-6.9088,-6.9134,-6.9236,-6.9219,-6.9269,-6.9241,-6.9238,-6.9354,-6.9375,-6.9439,-6.9471,-6.9444,-6.961,-6.9578,-6.952,-6.9423,-6.9595,-6.9661,-6.9688,-6.9326,-6.9323,-6.9321,-6.9318,0,0,-6.9141,-6.9183,-6.9214,-6.924,-6.9279,-6.9342,-6.9439,-6.9504,-6.9547,-6.9589,-6.9667,-6.9768,-6.9714,-6.9747,-6.9721,-6.9791,-6.9957,-6.9723,-6.9723,-6.9765,-7.0139,-7.0182,-7.0214,-6.9925,-6.993,-6.9934,-7.0135,0,-6.9345,-6.9516,-6.9491,-6.9655,-6.9731,-6.9666,-6.975,-6.9781,-6.9781,-6.9844,-6.9842,-6.9914,-6.9838,-6.9857,-6.9923,-6.9924,-7.0032,-6.9909,-6.9995,-6.9998,-6.9987,-7.0249,-7.0295,-7.0484,-7.0161,-7.0165,-7.0169,0,-6.9606,-6.9659,-6.9831,-6.9857,-6.9887,-6.9964,-7.002,-7.0082,-7.0116,-7.011,-7.0148,-7.0109,-7.0203,-7.0106,-7.0234,-7.0151,-7.0184,-7.019,-7.0196,-7.0202,-7.0093,-7.026,-7.0544,-7.0572,-7.0209,-7.0206,-7.0203,0,-6.9792,-6.9906,-7.0023,-7.0047,-7.0081,-7.0136,-7.0152,-7.018,-7.022,-7.0268,-7.0293,-7.0352,-7.0383,-7.0428,-7.0406,-7.0337,-7.0537,-7.0438,-7.0533,-7.0534,-7.0577,-7.0575,-7.0869,-7.0602,-7.0602,-7.0601,-7.0601,0,-7.0021,-7.0128,-7.0107,-7.0179,-7.0296,-7.0265,-7.0381,-7.0389,-7.0414,-7.0484,-7.0431,-7.0498,-7.0465,-7.0528,-7.0511,-7.0618,-7.0633,-7.063,-7.0624,-7.0634,-7.0634,-7.0654,-7.064,-7.0609,-7.0607,-7.0606,-7.0604,0,-7.0248,-7.0239,-7.0361,-7.0384,-7.0392,-7.0477,-7.0494,-7.056,-7.0555,-7.0645,-7.0664,-7.0656,-7.0728,-7.0711,-7.0789,-7.0777,-7.0912,-7.089,-7.0901,-7.0895,-7.0991,-7.0981,-7.1307,-7.1348,-7.1056,-7.1059,-7.1061,0,-7.0395,-7.0476,-7.0507,-7.0551,-7.0572,-7.0644,-7.0685,-7.0657,-7.0701,-7.0745,-7.0805,-7.0873,-7.0925,-7.1042,-7.1042,-7.1101,-7.1079,-7.1189,-7.1087,-7.1094,-7.1078,-7.1073,-7.108,-7.1209,-7.1212,-7.1215,-7.1217,0,-7.0655,-7.0646,-7.0708,-7.0769,-7.082,-7.0865,-7.0906,-7.0944,-7.092,-7.0972,-7.1045,-7.1086,-7.1166,-7.1233,-7.1287,-7.13,-7.1254,-7.1249,-7.1274,-7.1285,-7.1287,-7.1285,-7.0955,-7.1242,-7.1239,-7.1237,-7.1236,-7.1235,-7.0845,-7.0913,-7.0946,-7.1016,-7.1044,-7.1083,-7.1146,-7.115,-7.1211,-7.1275,-7.1255,-7.1338,-7.1368,-7.1436,-7.1456,-7.1519,-7.1477,-7.1514,-7.1522,-7.1531,-7.1543,-7.1279,-7.1529,-7.1528,-7.1528,-7.1527,-7.1526,0,-7.1101,-7.1119,-7.1184,-7.1243,-7.1298,-7.1252,-7.1294,-7.1342,-7.1417,-7.1449,-7.1502,-7.1586,-7.165,-7.1656,-7.1715,-7.1765,-7.1745,-7.1781,-7.1776,-7.178,-7.1578,-7.155,-7.1796,-7.1796,-7.1796,-7.1796,-7.1796,-7.1796,-7.124,-7.1353,-7.1348,-7.1473,-7.1489,-7.1572,-7.16,-7.1634,-7.166,-7.1756,-7.181,-7.1814,-7.1834,-7.1895,-7.1951,-7.1951,-7.1974,-7.2019,-7.201,-7.1821,-7.1794,-7.1768,-7.1742,-7.2024,-7.2025,-7.2206,-7.2208,-7.2209]}]]